When you browse on this site, cookies collect data to enhance your experience and personalize the content and advertising you see.
Visit our Privacy Policy to learn more. By continuing to use the site, you agree to this use of cookies and data.
  • En España
  • Lista de países
  • Para 7 días
  • Temperatura del agua
  • El tiempo en el mapa
  • Informadores
  • user-avatar
    Iniciar sesión

    Tiempo cada hora Valutino

    Hoy, 7 Junio, Domingo

    Tiempo Temperatura Precipitaciones Viento Presión Humedad
    00:00 +15°C° 0 mm 1 mps 742 mmHg 93%
    01:00 +15°C° 0 mm 1 mps 743 mmHg 94%
    02:00 +14°C° 0 mm 1 mps 743 mmHg 94%
    03:00 +14°C° 0 mm 1 mps 744 mmHg 93%
    04:00 +15°C° 0 mm 1 mps 744 mmHg 93%
    05:00 +15°C° 0 mm 1 mps 744 mmHg 92%
    06:00 +18°C° 0 mm 1 mps 745 mmHg 88%
    07:00 +19°C° 0 mm 1 mps 745 mmHg 83%
    08:00 +21°C° 0 mm 1 mps 745 mmHg 79%
    09:00 +22°C° 0 mm 1 mps 745 mmHg 73%
    10:00 +24°C° 0 mm 1 mps 746 mmHg 67%
    11:00 +25°C° 0 mm 1 mps 746 mmHg 62%
    12:00 +25°C° 0 mm 1 mps 746 mmHg 60%
    13:00 +26°C° 0 mm 1 mps 746 mmHg 58%
    14:00 +26°C° 0 mm 1 mps 746 mmHg 56%
    15:00 +26°C° 0 mm 1 mps 745 mmHg 60%
    16:00 +26°C° 0 mm 2 mps 745 mmHg 64%
    17:00 +25°C° 0 mm 2 mps 745 mmHg 68%
    18:00 +24°C° 0 mm 2 mps 745 mmHg 72%
    19:00 +22°C° 0 mm 1 mps 745 mmHg 77%
    20:00 +20°C° 0 mm 1 mps 745 mmHg 81%
    21:00 +19°C° 0 mm 2 mps 745 mmHg 83%
    22:00 +18°C° 0 mm 2 mps 745 mmHg 85%
    23:00 +17°C° 0 mm 2 mps 745 mmHg 86%

    Mañana, 8 Junio, Lunes

    Tiempo Temperatura Precipitaciones Viento Presión Humedad
    00:00 +17°C° 0 mm 2 mps 745 mmHg 88%
    01:00 +17°C° 0 mm 2 mps 745 mmHg 90%
    02:00 +17°C° 0 mm 2 mps 745 mmHg 92%
    03:00 +17°C° 0 mm 2 mps 745 mmHg 93%
    04:00 +18°C° 0 mm 2 mps 745 mmHg 93%
    05:00 +18°C° 0 mm 2 mps 745 mmHg 93%
    06:00 +20°C° 0 mm 2 mps 745 mmHg 89%
    07:00 +21°C° 0 mm 2 mps 745 mmHg 85%
    08:00 +24°C° 0 mm 2 mps 745 mmHg 81%
    09:00 +25°C° 0 mm 3 mps 745 mmHg 77%
    10:00 +26°C° 0 mm 3 mps 745 mmHg 73%
    11:00 +27°C° 0 mm 4 mps 745 mmHg 69%
    12:00 +28°C° 0 mm 3 mps 745 mmHg 68%
    13:00 +28°C° 0 mm 3 mps 745 mmHg 66%
    14:00 +28°C° 0 mm 3 mps 745 mmHg 65%
    15:00 +28°C° 0 mm 3 mps 745 mmHg 67%
    16:00 +28°C° 0 mm 2 mps 744 mmHg 69%
    17:00 +28°C° 0 mm 2 mps 744 mmHg 71%
    18:00 +26°C° 0 mm 2 mps 744 mmHg 75%
    19:00 +24°C° 0 mm 2 mps 744 mmHg 80%
    20:00 +22°C° 0 mm 1 mps 744 mmHg 84%
    21:00 +22°C° 0 mm 1 mps 744 mmHg 86%
    22:00 +21°C° 0 mm 1 mps 744 mmHg 87%
    23:00 +20°C° 0 mm 1 mps 745 mmHg 89%

    Pasado mañana, 9 Junio, Martes

    Tiempo Temperatura Precipitaciones Viento Presión Humedad
    00:00 +20°C° 0 mm 1 mps 745 mmHg 90%
    01:00 +19°C° 0 mm 1 mps 745 mmHg 91%
    02:00 +18°C° 0 mm 2 mps 745 mmHg 92%
    03:00 +18°C° 0 mm 2 mps 745 mmHg 92%
    04:00 +19°C° 0 mm 2 mps 745 mmHg 92%
    05:00 +19°C° 0 mm 2 mps 745 mmHg 92%
    06:00 +20°C° 0 mm 2 mps 745 mmHg 88%
    07:00 +23°C° 0 mm 2 mps 745 mmHg 83%
    08:00 +25°C° 0 mm 2 mps 745 mmHg 79%
    09:00 +26°C° 0.2 mm 2 mps 745 mmHg 76%
    10:00 +27°C° 0.2 mm 2 mps 745 mmHg 72%
    11:00 +28°C° 0.2 mm 2 mps 745 mmHg 69%
    12:00 +28°C° 0.5 mm 2 mps 745 mmHg 69%
    13:00 +28°C° 0.5 mm 3 mps 745 mmHg 68%
    14:00 +28°C° 0.5 mm 3 mps 745 mmHg 68%
    15:00 +28°C° 0.9 mm 2 mps 745 mmHg 71%
    16:00 +28°C° 0.9 mm 2 mps 745 mmHg 74%
    17:00 +27°C° 0.9 mm 1 mps 745 mmHg 77%
    18:00 +26°C° 0.2 mm 1 mps 745 mmHg 80%
    19:00 +24°C° 0.2 mm 1 mps 745 mmHg 84%
    20:00 +23°C° 0.2 mm 1 mps 744 mmHg 88%
    21:00 +22°C° 0 mm 1 mps 745 mmHg 89%
    22:00 +21°C° 0 mm 1 mps 745 mmHg 90%
    23:00 +21°C° 0 mm 1 mps 745 mmHg 91%

    10 Junio, Miércoles

    Tiempo Temperatura Precipitaciones Viento Presión Humedad
    00:00 +20°C° 0 mm 1 mps 745 mmHg 92%
    01:00 +20°C° 0 mm 1 mps 745 mmHg 93%
    02:00 +20°C° 0 mm 1 mps 745 mmHg 94%
    03:00 +20°C° 0 mm 1 mps 745 mmHg 94%
    04:00 +20°C° 0 mm 1 mps 745 mmHg 94%
    05:00 +20°C° 0 mm 1 mps 745 mmHg 94%
    06:00 +22°C° 0 mm 1 mps 745 mmHg 90%
    07:00 +23°C° 0 mm 1 mps 745 mmHg 85%
    08:00 +25°C° 0 mm 1 mps 745 mmHg 81%
    09:00 +26°C° 0.5 mm 1 mps 745 mmHg 77%
    10:00 +27°C° 0.5 mm 1 mps 745 mmHg 73%
    11:00 +28°C° 0.5 mm 1 mps 745 mmHg 69%
    12:00 +28°C° 0.3 mm 2 mps 745 mmHg 68%
    13:00 +28°C° 0.3 mm 2 mps 745 mmHg 67%
    14:00 +28°C° 0.3 mm 2 mps 744 mmHg 67%
    15:00 +28°C° 0.3 mm 2 mps 744 mmHg 69%
    16:00 +28°C° 0.3 mm 2 mps 744 mmHg 71%
    17:00 +27°C° 0.3 mm 2 mps 744 mmHg 74%
    18:00 +26°C° 0.4 mm 2 mps 744 mmHg 79%
    19:00 +24°C° 0.4 mm 2 mps 744 mmHg 84%
    20:00 +23°C° 0.4 mm 2 mps 744 mmHg 90%
    21:00 +21°C° 0 mm 2 mps 744 mmHg 91%
    22:00 +20°C° 0 mm 2 mps 744 mmHg 92%
    23:00 +19°C° 0 mm 2 mps 744 mmHg 93%

    11 Junio, Jueves

    Tiempo Temperatura Precipitaciones Viento Presión Humedad
    00:00 +20°C° 0 mm 1 mps 744 mmHg 93%
    01:00 +20°C° 0 mm 1 mps 744 mmHg 94%
    02:00 +19°C° 0 mm 1 mps 744 mmHg 94%
    03:00 +19°C° 0 mm 1 mps 744 mmHg 94%
    04:00 +20°C° 0 mm 1 mps 744 mmHg 94%
    05:00 +19°C° 0 mm 2 mps 744 mmHg 94%
    06:00 +21°C° 0 mm 2 mps 744 mmHg 90%
    07:00 +23°C° 0 mm 2 mps 744 mmHg 86%
    08:00 +24°C° 0 mm 2 mps 744 mmHg 82%
    09:00 +26°C° 0.4 mm 2 mps 744 mmHg 77%
    10:00 +27°C° 0.4 mm 2 mps 744 mmHg 72%
    11:00 +28°C° 0.4 mm 2 mps 744 mmHg 67%
    12:00 +28°C° 0.4 mm 2 mps 744 mmHg 65%
    13:00 +28°C° 0.4 mm 2 mps 744 mmHg 64%
    14:00 +29°C° 0.4 mm 2 mps 743 mmHg 62%
    15:00 +28°C° 0.3 mm 2 mps 743 mmHg 66%
    16:00 +28°C° 0.3 mm 2 mps 743 mmHg 70%
    17:00 +27°C° 0.3 mm 2 mps 743 mmHg 74%
    18:00 +26°C° 0.1 mm 2 mps 743 mmHg 79%
    19:00 +24°C° 0.1 mm 2 mps 743 mmHg 84%
    20:00 +23°C° 0.1 mm 2 mps 743 mmHg 89%
    21:00 +21°C° 0 mm 2 mps 743 mmHg 91%
    22:00 +20°C° 0 mm 2 mps 743 mmHg 92%
    23:00 +19°C° 0 mm 2 mps 743 mmHg 94%

    12 Junio, Viernes

    Tiempo Temperatura Precipitaciones Viento Presión Humedad
    00:00 +19°C° 0 mm 2 mps 743 mmHg 95%
    01:00 +19°C° 0 mm 2 mps 743 mmHg 95%
    02:00 +18°C° 0 mm 2 mps 742 mmHg 96%
    03:00 +19°C° 0 mm 2 mps 742 mmHg 96%
    04:00 +19°C° 0 mm 2 mps 742 mmHg 96%
    05:00 +19°C° 0 mm 2 mps 742 mmHg 95%
    06:00 +21°C° 0.1 mm 2 mps 743 mmHg 92%
    07:00 +23°C° 0.1 mm 2 mps 743 mmHg 89%
    08:00 +24°C° 0.1 mm 3 mps 743 mmHg 85%
    09:00 +25°C° 0.7 mm 3 mps 743 mmHg 83%
    10:00 +26°C° 0.7 mm 3 mps 743 mmHg 80%
    11:00 +27°C° 0.7 mm 3 mps 743 mmHg 77%
    12:00 +28°C° 0.1 mm 3 mps 742 mmHg 73%
    13:00 +28°C° 0.1 mm 3 mps 742 mmHg 69%
    14:00 +29°C° 0.1 mm 3 mps 742 mmHg 65%
    15:00 +28°C° 0.3 mm 3 mps 742 mmHg 69%
    16:00 +28°C° 0.3 mm 2 mps 742 mmHg 73%
    17:00 +28°C° 0.3 mm 2 mps 742 mmHg 78%
    18:00 +26°C° 0.1 mm 2 mps 742 mmHg 81%
    19:00 +25°C° 0.1 mm 2 mps 742 mmHg 85%
    20:00 +23°C° 0.1 mm 2 mps 742 mmHg 89%
    21:00 +21°C° 0 mm 2 mps 742 mmHg 90%
    22:00 +20°C° 0 mm 2 mps 742 mmHg 92%
    23:00 +20°C° 0 mm 3 mps 742 mmHg 93%
    Mostrar más